Satellite: MET-2/21 Catalog number: 22782 Epoch time: 08086.77085796 Element set: 0101 Inclination: 082.5511 deg RA of node: 176.9484 deg Eccentricity: 0.0023189 Arg of perigee: 157.6031 deg Mean anomaly: 202.6148 deg Mean motion: 13.83627066 rev/day Decay rate: -1.0e-07 rev/day^2 Epoch rev: 73573 Checksum: 309
Satellite: OKEAN-4 Catalog number: 23317 Epoch time: 08086.85356984 Element set: 0543 Inclination: 082.5414 deg RA of node: 031.8864 deg Eccentricity: 0.0023615 Arg of perigee: 041.4406 deg Mean anomaly: 318.8590 deg Mean motion: 14.82590845 rev/day Decay rate: 1.74e-06 rev/day^2 Epoch rev: 72608 Checksum: 317
Satellite: NOAA-14 Catalog number: 23455 Epoch time: 08087.45041707 Element set: 79 Inclination: 098.9507 deg RA of node: 159.6280 deg Eccentricity: 0.0009482 Arg of perigee: 022.2023 deg Mean anomaly: 337.9558 deg Mean motion: 14.13738738 rev/day Decay rate: 1.89e-06 rev/day^2 Epoch rev: 68280 Checksum: 331
Satellite: SICH-1 Catalog number: 23657 Epoch time: 08086.81978398 Element set: 340 Inclination: 082.5313 deg RA of node: 172.8914 deg Eccentricity: 0.0025064 Arg of perigee: 034.4513 deg Mean anomaly: 325.8334 deg Mean motion: 14.81563047 rev/day Decay rate: 3.28e-06 rev/day^2 Epoch rev: 67802 Checksum: 310
Satellite: NOAA-15 Catalog number: 25338 Epoch time: 08087.11792966 Element set: 403 Inclination: 098.5524 deg RA of node: 081.0765 deg Eccentricity: 0.0009624 Arg of perigee: 282.8431 deg Mean anomaly: 077.1686 deg Mean motion: 14.24691139 rev/day Decay rate: -1.50e-06 rev/day^2 Epoch rev: 51311 Checksum: 310
Satellite: RESURS Catalog number: 25394 Epoch time: 08087.68106080 Element set: 888 Inclination: 098.4005 deg RA of node: 135.3196 deg Eccentricity: 0.0002440 Arg of perigee: 074.9755 deg Mean anomaly: 285.1691 deg Mean motion: 14.24155663 rev/day Decay rate: -1.8e-07 rev/day^2 Epoch rev: 50484 Checksum: 310
Satellite: FENGYUN1 Catalog number: 25730 Epoch time: 08086.96324893 Element set: 0406 Inclination: 098.7212 deg RA of node: 065.5419 deg Eccentricity: 0.0022588 Arg of perigee: 044.4651 deg Mean anomaly: 315.8326 deg Mean motion: 14.07720250 rev/day Decay rate: 1.13e-06 rev/day^2 Epoch rev: 45739 Checksum: 300
Satellite: OKEAN-0 Catalog number: 25860 Epoch time: 08086.61068582 Element set: 0325 Inclination: 097.7464 deg RA of node: 080.8287 deg Eccentricity: 0.0001164 Arg of perigee: 103.6761 deg Mean anomaly: 256.4580 deg Mean motion: 14.73509722 rev/day Decay rate: 3.2e-07 rev/day^2 Epoch rev: 46723 Checksum: 303
Satellite: NOAA-16 Catalog number: 26536 Epoch time: 08087.10759147 Element set: 865 Inclination: 099.1527 deg RA of node: 074.5027 deg Eccentricity: 0.0011370 Arg of perigee: 095.0932 deg Mean anomaly: 265.1572 deg Mean motion: 14.12472355 rev/day Decay rate: -8.1e-07 rev/day^2 Epoch rev: 38718 Checksum: 313
Satellite: NOAA-17 Catalog number: 27453 Epoch time: 08087.47342721 Element set: 862 Inclination: 098.5408 deg RA of node: 154.4412 deg Eccentricity: 0.0011324 Arg of perigee: 351.4408 deg Mean anomaly: 008.6562 deg Mean motion: 14.23960015 rev/day Decay rate: 1.02e-06 rev/day^2 Epoch rev: 29917 Checksum: 288
Satellite: NOAA-18 Catalog number: 28654 Epoch time: 08087.44333335 Element set: 369 Inclination: 098.8619 deg RA of node: 029.4061 deg Eccentricity: 0.0014092 Arg of perigee: 181.6353 deg Mean anomaly: 178.4754 deg Mean motion: 14.11149031 rev/day Decay rate: 8.6e-07 rev/day^2 Epoch rev: 14694 Checksum: 319
/EX SB KEPS @ AMSAT $ORB08087.M Orbital Elements 08087.MISC
HR AMSAT ORBITAL ELEMENTS FOR MANNED AND MISCELLANEOUS SATELLITES FROM WA5QGD FORT WORTH,TX March 27, 2008 Send Subscribe/unsubscribe to KEPS at http://www.amsat.org/mailman/listinfo/keps BID: ORB08087.M TO ALL RADIO AMATEURS BT
Satellite: HUBBLE Catalog number: 20580 Epoch time: 08086.46069789 Element set: 0112 Inclination: 028.4673 deg RA of node: 142.7809 deg Eccentricity: 0.0003907 Arg of perigee: 224.8613 deg Mean anomaly: 135.1662 deg Mean motion: 15.00354077 rev/day Decay rate: 3.71e-06 rev/day^2 Epoch rev: 78254 Checksum: 298
Satellite: UARS Catalog number: 21701 Epoch time: 08087.72087671 Element set: 324 Inclination: 056.9734 deg RA of node: 156.7001 deg Eccentricity: 0.0088432 Arg of perigee: 027.0805 deg Mean anomaly: 333.4826 deg Mean motion: 15.50995585 rev/day Decay rate: 5.038e-05 rev/day^2 Epoch rev: 90985 Checksum: 318
Satellite: PO-34 Catalog number: 25520 Epoch time: 08086.97126369 Element set: 0960 Inclination: 028.4601 deg RA of node: 009.1976 deg Eccentricity: 0.0005484 Arg of perigee: 110.6825 deg Mean anomaly: 249.4354 deg Mean motion: 15.17156762 rev/day Decay rate: 4.96e-06 rev/day^2 Epoch rev: 52066 Checksum: 318
Satellite: ISS Catalog number: 25544 Epoch time: 08087.97031817 Element set: 195 Inclination: 051.6415 deg RA of node: 075.0744 deg Eccentricity: 0.0000589 Arg of perigee: 329.7644 deg Mean anomaly: 081.1587 deg Mean motion: 15.76565780 rev/day Decay rate: 1.5621e-04 rev/day^2 Epoch rev: 53571 Checksum: 323
Satellite: OO-38 Catalog number: 26063 Epoch time: 08087.27364344 Element set: 170 Inclination: 100.1986 deg RA of node: 147.0673 deg Eccentricity: 0.0037227 Arg of perigee: 080.5029 deg Mean anomaly: 280.0357 deg Mean motion: 14.35830473 rev/day Decay rate: -3.2e-07 rev/day^2 Epoch rev: 42781 Checksum: 292
Satellite: UWE-1 Catalog number: 28892 Epoch time: 08087.71319112 Element set: 8 Inclination: 098.1047 deg RA of node: 343.2647 deg Eccentricity: 0.0016558 Arg of perigee: 306.7318 deg Mean anomaly: 053.2320 deg Mean motion: 14.59607607 rev/day Decay rate: 1.53e-06 rev/day^2 Epoch rev: 12871 Checksum: 295
Satellite: CO-58 Catalog number: 28895 Epoch time: 08086.72367807 Element set: 0982 Inclination: 098.1075 deg RA of node: 342.6217 deg Eccentricity: 0.0017198 Arg of perigee: 310.2401 deg Mean anomaly: 049.7306 deg Mean motion: 14.59648201 rev/day Decay rate: 1.9e-07 rev/day^2 Epoch rev: 12845 Checksum: 328
Satellite: NCUBE2 Catalog number: 28897 Epoch time: 08086.69779166 Element set: 0513 Inclination: 098.1055 deg RA of node: 342.5308 deg Eccentricity: 0.0016814 Arg of perigee: 311.9859 deg Mean anomaly: 047.9900 deg Mean motion: 14.59817409 rev/day Decay rate: 1.18e-06 rev/day^2 Epoch rev: 12073 Checksum: 336
Satellite: FCAL Catalog number: 29667 Epoch time: 08087.80124598 Element set: 864 Inclination: 051.6251 deg RA of node: 026.1892 deg Eccentricity: 0.0007591 Arg of perigee: 048.2947 deg Mean anomaly: 311.8782 deg Mean motion: 16.07632251 rev/day Decay rate: 1.35782e-03 rev/day^2 Epoch rev: 7343 Checksum: 324
Satellite: FALCON Catalog number: 30776 Epoch time: 08087.80042728 Element set: 277 Inclination: 035.4346 deg RA of node: 287.0675 deg Eccentricity: 0.0001764 Arg of perigee: 353.0798 deg Mean anomaly: 006.9893 deg Mean motion: 15.02926151 rev/day Decay rate: 5.22e-06 rev/day^2 Epoch rev: 5789 Checksum: 320
Satellite: MAST Catalog number: 31126 Epoch time: 08087.72985066 Element set: 288 Inclination: 098.0447 deg RA of node: 155.3934 deg Eccentricity: 0.0094034 Arg of perigee: 224.0002 deg Mean anomaly: 135.3709 deg Mean motion: 14.53408999 rev/day Decay rate: 1.16e-06 rev/day^2 Epoch rev: 5018 Checksum: 300
Satellite: CAPE1 Catalog number: 31130 Epoch time: 08086.90952010 Element set: 0276 Inclination: 098.0449 deg RA of node: 153.8027 deg Eccentricity: 0.0102019 Arg of perigee: 228.6456 deg Mean anomaly: 130.5914 deg Mean motion: 14.51943023 rev/day Decay rate: 2.3e-07 rev/day^2 Epoch rev: 04978 Checksum: 276
/EX